Location: ?????????
(54.7630°N, 39.4991°E)
Time: 11:49:26
(UTC+00:00)

NOSS 3-1 (A) - Pass Details

Date: 14 April 2026
Orbit: 613 x 1593 km, 63.4° (Epoch: 10 January)

Event Time Altitude Azimuth Distance (km) Brightness Sun altitude
Rises 20:55:04 0° 310° (NW) 3,656 7.2 -25.3°
Reaches altitude 10° 20:57:25 10° 308° (NW) 2,833 6.5 -25.4°
Maximum altitude 21:04:09 64° 229° (SW) 1,340 4.0 -25.5°
Enters shadow 21:06:11 49° 175° (S) 1,596 4.1 -25.5°
